| time (UTC) | temp F | wind direction | speed knots | gust knots | rain 1hr in | rain 24hr in | rain mn in | humidity % | barometer mb |
| 20260903075506 | 76 | 115 | 0.9 | 4.3 | 0.00 | 0.04 | 0.00 | 87 | 1011.3 |
| 20260903075006 | 76 | 120 | 0.9 | 4.3 | 0.00 | 0.04 | 0.00 | 86 | 1011.2 |
| 20260903074503 | 76 | 114 | 0.0 | 2.6 | 0.00 | 0.04 | 0.00 | 86 | 1011.1 |
| 20260903074004 | 76 | 113 | 0.0 | 3.5 | 0.00 | 0.04 | 0.00 | 85 | 1011.1 |
| 20260903073437 | 77 | 129 | 0.9 | 3.5 | 0.00 | 0.04 | 0.00 | 85 | 1011.1 |
| 20260903072932 | 77 | 108 | 0.9 | 3.5 | 0.00 | 0.04 | 0.00 | 84 | 1011.2 |
| 20260903072432 | 77 | 122 | 0.0 | 3.5 | 0.00 | 0.04 | 0.00 | 83 | 1011.3 |
| 20260903071900 | 77 | 122 | 0.9 | 4.3 | 0.00 | 0.04 | 0.00 | 82 | 1011.3 |
| 20260903071338 | 78 | 113 | 0.9 | 5.2 | 0.00 | 0.04 | 0.00 | 81 | 1011.4 |
| 20260903070837 | 78 | 139 | 2.6 | 8.7 | 0.00 | 0.04 | 0.00 | 81 | 1011.4 |
| 20260903070337 | 78 | 124 | 3.5 | 9.6 | 0.00 | 0.04 | 0.00 | 79 | 1011.4 |
| 20260903065810 | 79 | 113 | 2.6 | 7.8 | 0.00 | 0.04 | 0.00 | 78 | 1011.4 |
| 20260903065241 | 79 | 87 | 1.7 | 7.8 | 0.00 | 0.04 | 0.00 | 76 | 1011.4 |
| 20260903065002 | 80 | 99 | 1.7 | 6.1 | 0.00 | 0.04 | 0.00 | 76 | 1011.4 |
| 20260903064458 | 80 | 115 | 0.9 | 6.1 | 0.00 | 0.04 | 0.00 | 75 | 1011.4 |
| 20260903063733 | 80 | 98 | 0.9 | 3.5 | 0.00 | 0.04 | 0.00 | 75 | 1011.4 |
| 20260903063205 | 80 | 109 | 0.0 | 3.5 | 0.00 | 0.04 | 0.00 | 75 | 1011.3 |
| 20260903062701 | 80 | 123 | 0.0 | 0.9 | 0.00 | 0.04 | 0.00 | 75 | 1011.3 |
| 20260903062138 | 80 | 123 | 0.0 | 1.7 | 0.00 | 0.04 | 0.00 | 75 | 1011.2 |
| 20260903061608 | 80 | 126 | 0.0 | 1.7 | 0.00 | 0.04 | 0.00 | 75 | 1011.3 |
| 20260903061107 | 80 | 126 | 0.9 | 5.2 | 0.00 | 0.04 | 0.00 | 75 | 1011.4 |
| 20260903060541 | 80 | 127 | 1.7 | 6.1 | 0.00 | 0.04 | 0.00 | 75 | 1011.4 |
| 20260903060037 | 80 | 124 | 1.7 | 6.1 | 0.00 | 0.04 | 0.00 | 75 | 1011.5 |
| 20260903055536 | 80 | 116 | 0.9 | 4.3 | 0.00 | 0.04 | 0.00 | 75 | 1011.6 |
| 20260903055009 | 80 | 127 | 0.9 | 3.5 | 0.00 | 0.04 | 0.00 | 75 | 1011.9 |
| 20260903054443 | 80 | 117 | 1.7 | 6.1 | 0.00 | 0.04 | 0.00 | 75 | 1012.0 |
| 20260903053921 | 80 | 117 | 1.7 | 7.0 | 0.00 | 0.04 | 0.00 | 74 | 1012.0 |
| 20260903053358 | 80 | 59 | 1.7 | 7.0 | 0.00 | 0.04 | 0.00 | 74 | 1012.0 |
| 20260903052835 | 80 | 107 | 1.7 | 8.7 | 0.00 | 0.04 | 0.00 | 73 | 1012.0 |
| 20260903052332 | 80 | 97 | 0.9 | 8.7 | 0.00 | 0.04 | 0.00 | 73 | 1012.1 |
| 20260903051833 | 80 | 105 | 0.0 | 4.3 | 0.00 | 0.04 | 0.00 | 72 | 1012.1 |
| 20260903051335 | 80 | 86 | 0.0 | 4.3 | 0.00 | 0.04 | 0.00 | 72 | 1012.0 |
| 20260903050829 | 80 | 129 | 0.0 | 6.1 | 0.00 | 0.04 | 0.00 | 72 | 1012.1 |
| 20260903050331 | 80 | 108 | 0.9 | 6.1 | 0.00 | 0.04 | 0.00 | 71 | 1012.2 |
| 20260903045807 | 80 | 120 | 1.7 | 7.8 | 0.00 | 0.04 | 0.04 | 71 | 1012.4 |
| 20260903045455 | 80 | 123 | 1.7 | 7.8 | 0.00 | 0.04 | 0.04 | 71 | 1012.3 |
| 20260903044707 | 80 | 123 | 1.7 | 10.4 | 0.00 | 0.04 | 0.04 | 70 | 1012.3 |
| 20260903044204 | 81 | 119 | 2.6 | 10.4 | 0.00 | 0.04 | 0.04 | 69 | 1012.3 |
| 20260903043921 | 81 | 115 | 4.3 | 10.4 | 0.00 | 0.04 | 0.04 | 69 | 1012.3 |
| 20260903043638 | 81 | 108 | 3.5 | 10.4 | 0.00 | 0.04 | 0.04 | 69 | 1012.2 |
| 20260903042652 | 81 | 132 | 3.5 | 9.6 | 0.00 | 0.04 | 0.04 | 69 | 1012.2 |
| 20260903042124 | 81 | 84 | 2.6 | 8.7 | 0.00 | 0.04 | 0.04 | 68 | 1012.2 |
| 20260903041622 | 81 | 28 | 1.7 | 6.1 | 0.00 | 0.04 | 0.04 | 68 | 1012.3 |
| 20260903041318 | 82 | 51 | 2.6 | 7.8 | 0.00 | 0.04 | 0.04 | 67 | 1012.3 |
| 20260903040751 | 82 | 108 | 2.6 | 7.0 | 0.00 | 0.04 | 0.04 | 66 | 1012.3 |
| 20260903040002 | 82 | 58 | 1.7 | 7.8 | 0.00 | 0.04 | 0.04 | 67 | 1012.3 |
| 20260903035458 | 82 | 116 | 1.7 | 7.8 | 0.00 | 0.04 | 0.04 | 66 | 1012.3 |
| 20260903034958 | 82 | 121 | 1.7 | 6.1 | 0.00 | 0.04 | 0.04 | 66 | 1012.3 |
| 20260903034428 | 82 | 58 | 1.7 | 7.0 | 0.00 | 0.04 | 0.04 | 66 | 1012.3 |
| 20260903033928 | 83 | 125 | 2.6 | 7.0 | 0.00 | 0.04 | 0.04 | 65 | 1012.3 |
| 20260903033617 | 83 | 128 | 2.6 | 6.1 | 0.00 | 0.04 | 0.04 | 65 | 1012.2 |
| 20260903032852 | 83 | 134 | 1.7 | 5.2 | 0.00 | 0.04 | 0.04 | 64 | 1012.1 |
| 20260903032827 | 83 | 127 | 0.9 | 5.2 | 0.00 | 0.04 | 0.04 | 64 | 1012.1 |
| 20260903031842 | 83 | 135 | 1.7 | 5.2 | 0.00 | 0.04 | 0.04 | 63 | 1012.1 |
| 20260903031338 | 83 | 115 | 1.7 | 6.1 | 0.00 | 0.04 | 0.04 | 62 | 1012.0 |
| 20260903030837 | 84 | 127 | 2.6 | 6.1 | 0.00 | 0.04 | 0.04 | 62 | 1012.1 |
| 20260903030337 | 84 | 118 | 2.6 | 7.0 | 0.00 | 0.04 | 0.04 | 62 | 1012.1 |
| 20260903025834 | 84 | 81 | 3.5 | 7.8 | 0.00 | 0.04 | 0.04 | 61 | 1012.1 |
| 20260903025805 | 84 | 129 | 3.5 | 7.8 | 0.00 | 0.04 | 0.04 | 61 | 1012.1 |
| 20260903024821 | 84 | 89 | 3.5 | 7.0 | 0.00 | 0.04 | 0.04 | 61 | 1012.1 |
| 20260903024309 | 85 | 193 | 3.5 | 12.2 | 0.00 | 0.04 | 0.04 | 60 | 1012.0 |
| 20260903023806 | 85 | 164 | 4.3 | 12.2 | 0.00 | 0.04 | 0.04 | 59 | 1012.0 |
| 20260903023309 | 85 | 115 | 5.2 | 12.2 | 0.00 | 0.04 | 0.04 | 59 | 1011.9 |
| 20260903023003 | 85 | 128 | 4.3 | 9.6 | 0.00 | 0.04 | 0.04 | 59 | 1011.7 |
| 20260903022228 | 85 | 131 | 4.3 | 9.6 | 0.00 | 0.04 | 0.04 | 58 | 1011.9 |
| 20260903021730 | 85 | 131 | 3.5 | 9.6 | 0.00 | 0.04 | 0.04 | 58 | 1011.7 |
| 20260903021202 | 86 | 85 | 3.5 | 7.8 | 0.00 | 0.04 | 0.04 | 58 | 1011.5 |
| 20260903020701 | 86 | 127 | 4.3 | 11.3 | 0.00 | 0.04 | 0.04 | 57 | 1011.5 |
| 20260903020351 | 86 | 156 | 5.2 | 12.2 | 0.00 | 0.04 | 0.04 | 57 | 1011.4 |
| 20260903015609 | 87 | 120 | 5.2 | 12.2 | 0.00 | 0.04 | 0.04 | 56 | 1011.3 |
| 20260903015040 | 87 | 122 | 5.2 | 13.0 | 0.00 | 0.04 | 0.04 | 55 | 1011.2 |
| 20260903014512 | 88 | 135 | 4.3 | 13.0 | 0.00 | 0.04 | 0.04 | 54 | 1011.1 |
| 20260903014011 | 88 | 121 | 4.3 | 7.8 | 0.00 | 0.04 | 0.04 | 54 | 1011.0 |
| 20260903013443 | 88 | 120 | 3.5 | 7.8 | 0.00 | 0.04 | 0.04 | 53 | 1010.9 |
| 20260903012942 | 88 | 139 | 3.5 | 7.8 | 0.00 | 0.04 | 0.04 | 53 | 1010.8 |
| 20260903012417 | 88 | 91 | 1.7 | 7.8 | 0.00 | 0.04 | 0.04 | 52 | 1010.7 |
| 20260903011844 | 88 | 120 | 0.9 | 7.0 | 0.00 | 0.04 | 0.04 | 51 | 1010.6 |
| 20260903011342 | 89 | 115 | 0.9 | 7.0 | 0.00 | 0.04 | 0.04 | 51 | 1010.5 |
| 20260903010841 | 88 | 115 | 0.9 | 5.2 | 0.00 | 0.04 | 0.04 | 51 | 1010.5 |
| 20260903010328 | 89 | 101 | 0.9 | 5.2 | 0.00 | 0.04 | 0.04 | 50 | 1010.5 |
| 20260903005831 | 89 | 121 | 1.7 | 5.2 | 0.00 | 0.04 | 0.04 | 50 | 1010.4 |
| 20260903005302 | 89 | 113 | 1.7 | 7.8 | 0.00 | 0.04 | 0.04 | 50 | 1010.4 |
| 20260903004735 | 89 | 120 | 1.7 | 7.8 | 0.00 | 0.04 | 0.04 | 49 | 1010.4 |
| 20260903004430 | 89 | 130 | 1.7 | 7.0 | 0.00 | 0.04 | 0.04 | 50 | 1010.4 |
| 20260903003711 | 89 | 110 | 0.9 | 5.2 | 0.00 | 0.04 | 0.04 | 51 | 1010.4 |
| 20260903003136 | 89 | 249 | 0.9 | 5.2 | 0.00 | 0.04 | 0.04 | 52 | 1010.3 |
| 20260903002635 | 90 | 115 | 0.9 | 5.2 | 0.00 | 0.04 | 0.04 | 51 | 1010.3 |
| 20260903002106 | 90 | 125 | 0.9 | 5.2 | 0.00 | 0.04 | 0.04 | 51 | 1010.3 |
| 20260903001732 | 90 | 122 | 0.9 | 3.5 | 0.00 | 0.04 | 0.04 | 53 | 1010.2 |
| 20260903001616 | 90 | 83 | 0.9 | 5.2 | 0.00 | 0.04 | 0.04 | 52 | 1010.2 |
| 20260903000753 | 90 | 123 | 0.9 | 3.5 | 0.00 | 0.04 | 0.04 | 54 | 1010.2 |
| 20260903000003 | 89 | 130 | 0.9 | 6.1 | 0.00 | 0.04 | 0.04 | 56 | 1010.2 |
| 20260902235500 | 89 | 130 | 0.9 | 6.1 | 0.00 | 0.04 | 0.04 | 57 | 1010.2 |
| 20260902234957 | 88 | 95 | 0.0 | 6.1 | 0.00 | 0.04 | 0.04 | 58 | 1010.2 |
| 20260902234647 | 88 | 129 | 0.0 | 0.9 | 0.00 | 0.04 | 0.04 | 63 | 1010.1 |
| 20260902233909 | 88 | 219 | 0.0 | 0.9 | 0.00 | 0.04 | 0.04 | 63 | 1010.1 |
| 20260902233336 | 88 | 219 | 0.0 | 0.0 | 0.04 | 0.04 | 0.04 | 65 | 1010.2 |
| 20260902233104 | 88 | 214 | 0.0 | 0.0 | 0.04 | 0.04 | 0.04 | 66 | 1010.1 |
| 20260902232326 | 87 | 214 | 0.0 | 0.0 | 0.04 | 0.04 | 0.04 | 67 | 1010.1 |
| 20260902231825 | 87 | 214 | 0.0 | 0.0 | 0.04 | 0.04 | 0.04 | 66 | 1010.2 |
| 20260902231256 | 87 | 214 | 0.0 | 0.9 | 0.04 | 0.04 | 0.04 | 67 | 1010.2 |
| 20260902230753 | 86 | 214 | 0.0 | 0.9 | 0.04 | 0.04 | 0.04 | 66 | 1010.1 |
| 20260902230510 | 86 | 214 | 0.0 | 5.2 | 0.04 | 0.04 | 0.04 | 66 | 1010.2 |
| 20260902225744 | 87 | 214 | 0.9 | 5.2 | 0.04 | 0.04 | 0.04 | 64 | 1010.2 |
| 20260902225217 | 86 | 215 | 1.7 | 7.8 | 0.04 | 0.04 | 0.04 | 65 | 1010.2 |
| 20260902224715 | 86 | 235 | 4.3 | 7.8 | 0.04 | 0.04 | 0.04 | 62 | 1010.1 |
| 20260902224209 | 86 | 214 | 6.1 | 11.3 | 0.04 | 0.04 | 0.04 | 61 | 1010.1 |
| 20260902223707 | 87 | 238 | 7.0 | 14.8 | 0.03 | 0.03 | 0.04 | 57 | 1010.2 |
| 20260902223140 | 93 | 121 | 5.2 | 13.9 | 0.00 | 0.00 | 0.00 | 51 | 1010.3 |
| 20260902222615 | 99 | 85 | 2.6 | 12.2 | 0.00 | 0.00 | 0.00 | 36 | 1010.0 |
| 20260902222049 | 101 | 140 | 0.9 | 5.2 | 0.00 | 0.00 | 0.00 | 34 | 1009.7 |
| 20260902221748 | 100 | 64 | 0.9 | 7.8 | 0.00 | 0.00 | 0.00 | 34 | 1009.7 |
| 20260902220954 | 101 | 293 | 0.9 | 7.8 | 0.00 | 0.00 | 0.00 | 34 | 1009.7 |
| 20260902220454 | 101 | 35 | 0.9 | 7.8 | 0.00 | 0.00 | 0.00 | 35 | 1009.7 |
| 20260902215926 | 100 | 352 | 0.9 | 7.8 | 0.00 | 0.00 | 0.00 | 33 | 1009.8 |
| 20260902215843 | 101 | 68 | 0.9 | 5.2 | 0.00 | 0.00 | 0.00 | 33 | 1009.8 |
| 20260902214836 | 102 | 167 | 0.9 | 5.2 | 0.00 | 0.00 | 0.00 | 32 | 1009.9 |
| 20260902214334 | 102 | 97 | 0.9 | 5.2 | 0.00 | 0.00 | 0.00 | 33 | 1010.0 |
| 20260902213809 | 102 | 121 | 0.9 | 5.2 | 0.00 | 0.00 | 0.00 | 32 | 1010.0 |
| 20260902213304 | 102 | 19 | 0.9 | 6.1 | 0.00 | 0.00 | 0.00 | 33 | 1010.1 |
| 20260902212802 | 102 | 46 | 1.7 | 7.8 | 0.00 | 0.00 | 0.00 | 32 | 1010.0 |
| 20260902212251 | 102 | 99 | 2.6 | 7.8 | 0.00 | 0.00 | 0.00 | 33 | 1010.2 |
| 20260902211754 | 101 | 119 | 2.6 | 9.6 | 0.00 | 0.00 | 0.00 | 34 | 1010.2 |
| 20260902211514 | 100 | 340 | 1.7 | 9.6 | 0.00 | 0.00 | 0.00 | 34 | 1010.2 |
| 20260902211014 | 100 | 6 | 0.9 | 7.0 | 0.00 | 0.00 | 0.00 | 35 | 1010.2 |
| 20260902210224 | 101 | 127 | 1.7 | 7.0 | 0.00 | 0.00 | 0.00 | 33 | 1010.4 |
| 20260902205659 | 101 | 68 | 1.7 | 7.8 | 0.00 | 0.00 | 0.00 | 33 | 1010.4 |
| 20260902205130 | 102 | 118 | 0.9 | 7.8 | 0.00 | 0.00 | 0.00 | 33 | 1010.4 |
| 20260902204617 | 101 | 121 | 0.9 | 5.2 | 0.00 | 0.00 | 0.00 | 34 | 1010.5 |
| 20260902204050 | 101 | 258 | 0.9 | 7.8 | 0.00 | 0.00 | 0.00 | 33 | 1010.6 |
| 20260902203549 | 101 | 328 | 0.9 | 7.8 | 0.00 | 0.00 | 0.00 | 33 | 1010.6 |
| 20260902203050 | 100 | 64 | 1.7 | 6.1 | 0.00 | 0.00 | 0.00 | 33 | 1010.8 |
| 20260902202546 | 100 | 8 | 1.7 | 6.1 | 0.00 | 0.00 | 0.00 | 34 | 1010.9 |
| 20260902202528 | 101 | 335 | 1.7 | 5.2 | 0.00 | 0.00 | 0.00 | 32 | 1010.9 |
| 20260902201519 | 101 | 153 | 1.7 | 7.0 | 0.00 | 0.00 | 0.00 | 36 | 1011.0 |
| 20260902201012 | 100 | 15 | 2.6 | 7.0 | 0.00 | 0.00 | 0.00 | 35 | 1011.0 |
| 20260902200452 | 99 | 94 | 1.7 | 7.0 | 0.00 | 0.00 | 0.00 | 35 | 1011.2 |
| 20260902195951 | 100 | 93 | 0.9 | 6.1 | 0.00 | 0.00 | 0.00 | 34 | 1011.4 |
| 20260902195451 | 100 | 63 | 0.9 | 3.5 | 0.00 | 0.00 | 0.00 | 33 | 1011.4 |
| 20260902195433 | 100 | 55 | 0.9 | 5.2 | 0.00 | 0.00 | 0.00 | 35 | 1011.6 |
| 20260902194452 | 100 | 49 | 0.9 | 5.2 | 0.00 | 0.00 | 0.00 | 35 | 1011.6 |
| 20260902193949 | 98 | 138 | 1.7 | 5.2 | 0.00 | 0.00 | 0.00 | 35 | 1011.7 |
| 20260902193444 | 98 | 358 | 1.7 | 7.0 | 0.00 | 0.00 | 0.00 | 35 | 1011.9 |
| 20260902192935 | 99 | 343 | 0.9 | 7.0 | 0.00 | 0.00 | 0.00 | 35 | 1012.0 |
| 20260902192435 | 100 | 75 | 0.9 | 6.1 | 0.00 | 0.00 | 0.00 | 34 | 1012.0 |
| 20260902192200 | 100 | 66 | 0.9 | 5.2 | 0.00 | 0.00 | 0.00 | 36 | 1012.1 |
| 20260902191433 | 99 | 129 | 0.9 | 5.2 | 0.00 | 0.00 | 0.00 | 36 | 1012.1 |
| 20260902190935 | 98 | 142 | 0.9 | 4.3 | 0.00 | 0.00 | 0.00 | 38 | 1012.3 |
| 20260902190650 | 99 | 11 | 0.9 | 5.2 | 0.00 | 0.00 | 0.00 | 36 | 1012.3 |
| 20260902185934 | 99 | 134 | 1.7 | 6.1 | 0.00 | 0.00 | 0.00 | 37 | 1012.3 |
| 20260902185419 | 99 | 105 | 0.9 | 6.1 | 0.00 | 0.00 | 0.00 | 37 | 1012.5 |
| 20260902184857 | 98 | 81 | 0.9 | 6.1 | 0.00 | 0.00 | 0.00 | 40 | 1012.5 |
| 20260902184358 | 98 | 42 | 0.9 | 4.3 | 0.00 | 0.00 | 0.00 | 38 | 1012.7 |
| 20260902183844 | 96 | 70 | 1.7 | 8.7 | 0.00 | 0.00 | 0.00 | 40 | 1012.8 |
| 20260902183606 | 96 | 354 | 1.7 | 8.7 | 0.00 | 0.00 | 0.00 | 40 | 1012.8 |
| 20260902182841 | 96 | 82 | 1.7 | 7.0 | 0.00 | 0.00 | 0.00 | 39 | 1012.9 |
| 20260902182325 | 96 | 58 | 1.7 | 8.7 | 0.00 | 0.00 | 0.00 | 40 | 1013.0 |
| 20260902182315 | 97 | 356 | 1.7 | 8.7 | 0.00 | 0.00 | 0.00 | 36 | 1013.2 |
| 20260902181259 | 97 | 354 | 1.7 | 7.0 | 0.00 | 0.00 | 0.00 | 42 | 1013.2 |
| 20260902180951 | 96 | 70 | 0.9 | 4.3 | 0.00 | 0.00 | 0.00 | 43 | 1013.4 |
| 20260902180216 | 96 | 0 | 0.9 | 5.2 | 0.00 | 0.00 | 0.00 | 44 | 1013.5 |
| 20260902175714 | 95 | 82 | 1.7 | 7.0 | 0.00 | 0.00 | 0.00 | 43 | 1013.6 |
| 20260902175152 | 94 | 13 | 3.5 | 7.0 | 0.00 | 0.00 | 0.00 | 43 | 1013.8 |
| 20260902174632 | 94 | 354 | 1.7 | 7.8 | 0.00 | 0.00 | 0.00 | 43 | 1014.0 |
| 20260902174108 | 95 | 83 | 1.7 | 7.8 | 0.00 | 0.00 | 0.00 | 42 | 1013.9 |
| 20260902173603 | 95 | 39 | 0.9 | 5.2 | 0.00 | 0.00 | 0.00 | 46 | 1014.0 |
| 20260902173102 | 96 | 43 | 0.9 | 5.2 | 0.00 | 0.00 | 0.00 | 44 | 1014.0 |
| 20260902172536 | 95 | 125 | 0.9 | 5.2 | 0.00 | 0.00 | 0.00 | 45 | 1014.2 |
| 20260902172254 | 95 | 82 | 0.9 | 5.2 | 0.00 | 0.00 | 0.00 | 44 | 1014.3 |
| 20260902171529 | 95 | 124 | 1.7 | 5.2 | 0.00 | 0.00 | 0.00 | 45 | 1014.3 |
| 20260902171029 | 94 | 167 | 1.7 | 7.0 | 0.00 | 0.00 | 0.00 | 46 | 1014.5 |
| 20260902170501 | 94 | 97 | 0.9 | 7.0 | 0.00 | 0.00 | 0.00 | 48 | 1014.6 |
| 20260902165958 | 93 | 98 | 0.0 | 3.5 | 0.00 | 0.00 | 0.00 | 49 | 1014.6 |
| 20260902165427 | 92 | 53 | 0.9 | 6.1 | 0.00 | 0.00 | 0.00 | 51 | 1014.7 |
| 20260902164916 | 92 | 148 | 1.7 | 6.1 | 0.00 | 0.00 | 0.00 | 52 | 1014.8 |
| 20260902164413 | 92 | 342 | 1.7 | 6.1 | 0.00 | 0.00 | 0.00 | 49 | 1014.9 |
| 20260902163909 | 93 | 141 | 0.9 | 4.3 | 0.00 | 0.00 | 0.00 | 48 | 1015.0 |
| 20260902163409 | 93 | 255 | 0.9 | 6.1 | 0.00 | 0.00 | 0.00 | 50 | 1015.0 |
| 20260902162839 | 92 | 61 | 0.9 | 6.1 | 0.00 | 0.00 | 0.00 | 49 | 1014.9 |
| 20260902162600 | 93 | 124 | 0.0 | 4.3 | 0.00 | 0.00 | 0.00 | 51 | 1014.9 |
| 20260902161833 | 92 | 59 | 0.0 | 3.5 | 0.00 | 0.00 | 0.00 | 52 | 1014.9 |
| 20260902161812 | 92 | 122 | 0.0 | 4.3 | 0.00 | 0.00 | 0.00 | 52 | 1015.0 |
| 20260902160804 | 92 | 27 | 0.0 | 4.3 | 0.00 | 0.00 | 0.00 | 52 | 1015.0 |
| 20260902160302 | 91 | 254 | 0.9 | 3.5 | 0.00 | 0.00 | 0.00 | 55 | 1015.0 |
| 20260902155758 | 90 | 243 | 0.9 | 4.3 | 0.00 | 0.00 | 0.00 | 55 | 1015.0 |
| 20260902155256 | 91 | 131 | 0.9 | 6.1 | 0.00 | 0.00 | 0.00 | 54 | 1015.1 |
| 20260902154754 | 91 | 112 | 0.9 | 6.1 | 0.00 | 0.00 | 0.00 | 55 | 1015.0 |
| 20260902154229 | 90 | 70 | 0.0 | 2.6 | 0.00 | 0.00 | 0.00 | 56 | 1015.0 |
| 20260902153702 | 89 | 206 | 0.0 | 2.6 | 0.00 | 0.00 | 0.00 | 57 | 1015.1 |
| 20260902153354 | 89 | 256 | 0.0 | 3.5 | 0.00 | 0.00 | 0.00 | 59 | 1015.0 |
| 20260902152630 | 88 | 2 | 0.9 | 3.5 | 0.00 | 0.00 | 0.00 | 59 | 1015.0 |
| 20260902152105 | 88 | 133 | 0.9 | 5.2 | 0.00 | 0.00 | 0.00 | 59 | 1015.0 |
| 20260902151537 | 88 | 136 | 0.9 | 5.2 | 0.00 | 0.00 | 0.00 | 59 | 1015.0 |
| 20260902151039 | 88 | 118 | 0.9 | 5.2 | 0.00 | 0.00 | 0.00 | 61 | 1015.0 |
| 20260902150513 | 87 | 108 | 0.9 | 5.2 | 0.00 | 0.00 | 0.00 | 62 | 1015.0 |
| 20260902150009 | 87 | 148 | 1.7 | 5.2 | 0.00 | 0.00 | 0.00 | 61 | 1015.0 |
| 20260902145507 | 87 | 135 | 1.7 | 6.1 | 0.00 | 0.00 | 0.00 | 61 | 1014.9 |
| 20260902144939 | 87 | 130 | 1.7 | 6.1 | 0.00 | 0.00 | 0.00 | 61 | 1014.9 |
| 20260902144438 | 87 | 132 | 0.9 | 5.2 | 0.00 | 0.00 | 0.00 | 62 | 1014.8 |
| 20260902143913 | 87 | 120 | 0.9 | 3.5 | 0.00 | 0.00 | 0.00 | 62 | 1014.8 |
| 20260902143343 | 86 | 117 | 0.9 | 2.6 | 0.00 | 0.00 | 0.00 | 65 | 1014.8 |
| 20260902142822 | 86 | 221 | 0.0 | 3.5 | 0.00 | 0.00 | 0.00 | 64 | 1014.8 |
| 20260902142253 | 85 | 121 | 0.9 | 5.2 | 0.00 | 0.00 | 0.00 | 66 | 1014.8 |
| 20260902141751 | 85 | 124 | 0.9 | 5.2 | 0.00 | 0.00 | 0.00 | 65 | 1014.8 |
| 20260902141223 | 85 | 109 | 0.9 | 4.3 | 0.00 | 0.00 | 0.00 | 67 | 1014.8 |
| 20260902140947 | 84 | 111 | 0.9 | 4.3 | 0.00 | 0.00 | 0.00 | 67 | 1014.8 |
| 20260902140153 | 84 | 127 | 0.9 | 4.3 | 0.00 | 0.00 | 0.00 | 68 | 1014.7 |
| 20260902135651 | 83 | 155 | 0.9 | 3.5 | 0.00 | 0.00 | 0.00 | 68 | 1014.7 |
| 20260902135147 | 83 | 119 | 0.9 | 6.1 | 0.00 | 0.00 | 0.00 | 69 | 1014.7 |
| 20260902134645 | 82 | 122 | 1.7 | 6.1 | 0.00 | 0.00 | 0.00 | 69 | 1014.7 |
| 20260902134131 | 82 | 136 | 0.9 | 5.2 | 0.00 | 0.00 | 0.00 | 70 | 1014.7 |
| 20260902134035 | 81 | 131 | 1.7 | 5.2 | 0.00 | 0.00 | 0.00 | 70 | 1014.6 |
| 20260902133652 | 81 | 123 | 1.7 | 5.2 | 0.00 | 0.00 | 0.00 | 71 | 1014.6 |
| 20260902132531 | 81 | 131 | 0.9 | 5.2 | 0.00 | 0.00 | 0.00 | 70 | 1014.6 |
| 20260902132229 | 81 | 125 | 0.9 | 5.2 | 0.00 | 0.00 | 0.00 | 70 | 1014.6 |
| 20260902131442 | 80 | 128 | 1.7 | 5.2 | 0.00 | 0.00 | 0.00 | 71 | 1014.6 |
| 20260902130912 | 80 | 122 | 1.7 | 5.2 | 0.00 | 0.00 | 0.00 | 71 | 1014.6 |
| 20260902130345 | 80 | 126 | 1.7 | 6.1 | 0.00 | 0.00 | 0.00 | 72 | 1014.6 |
| 20260902125817 | 80 | 134 | 0.9 | 6.1 | 0.00 | 0.00 | 0.00 | 73 | 1014.6 |
| 20260902125315 | 79 | 131 | 0.9 | 2.6 | 0.00 | 0.00 | 0.00 | 74 | 1014.5 |
| 20260902124745 | 79 | 118 | 0.9 | 2.6 | 0.00 | 0.00 | 0.00 | 74 | 1014.4 |
| 20260902124220 | 79 | 117 | 0.9 | 3.5 | 0.00 | 0.00 | 0.00 | 75 | 1014.4 |
| 20260902123720 | 78 | 130 | 0.0 | 2.6 | 0.00 | 0.00 | 0.00 | 76 | 1014.3 |
| 20260902123159 | 78 | 131 | 0.0 | 2.6 | 0.00 | 0.00 | 0.00 | 76 | 1014.3 |
| 20260902122644 | 77 | 123 | 0.0 | 1.7 | 0.00 | 0.00 | 0.00 | 77 | 1014.3 |
| 20260902122139 | 76 | 128 | 0.0 | 0.9 | 0.00 | 0.00 | 0.00 | 78 | 1014.3 |
| 20260902121637 | 76 | 113 | 0.0 | 0.0 | 0.00 | 0.00 | 0.00 | 79 | 1014.3 |
| 20260902121133 | 76 | 202 | 0.0 | 0.0 | 0.00 | 0.00 | 0.00 | 80 | 1014.3 |
| 20260902120629 | 75 | 202 | 0.0 | 0.0 | 0.00 | 0.00 | 0.00 | 80 | 1014.3 |
| 20260902115539 | 76 | 202 | 0.0 | 0.0 | 0.00 | 0.00 | 0.00 | 79 | 1014.2 |
| 20260902115011 | 76 | 202 | 0.0 | 0.0 | 0.00 | 0.00 | 0.00 | 80 | 1014.2 |
| 20260902114509 | 76 | 202 | 0.0 | 0.0 | 0.00 | 0.00 | 0.00 | 79 | 1014.3 |
| 20260902114006 | 76 | 202 | 0.0 | 0.0 | 0.00 | 0.00 | 0.00 | 79 | 1014.3 |
| 20260902113504 | 76 | 201 | 0.0 | 0.0 | 0.00 | 0.00 | 0.00 | 79 | 1014.4 |
| 20260902112951 | 76 | 201 | 0.0 | 0.0 | 0.00 | 0.00 | 0.00 | 78 | 1014.3 |
| 20260902112454 | 76 | 201 | 0.0 | 0.0 | 0.00 | 0.00 | 0.00 | 79 | 1014.3 |
| 20260902111949 | 76 | 201 | 0.0 | 0.0 | 0.00 | 0.00 | 0.00 | 78 | 1014.3 |
| 20260902111445 | 76 | 202 | 0.0 | 0.0 | 0.00 | 0.00 | 0.00 | 78 | 1014.3 |
| 20260902110920 | 76 | 202 | 0.0 | 0.0 | 0.00 | 0.00 | 0.00 | 79 | 1014.2 |
| 20260902110421 | 76 | 201 | 0.0 | 0.0 | 0.00 | 0.00 | 0.00 | 78 | 1014.2 |
| 20260902105854 | 76 | 202 | 0.0 | 0.0 | 0.00 | 0.00 | 0.00 | 78 | 1014.2 |
| 20260902105347 | 76 | 201 | 0.0 | 0.0 | 0.00 | 0.00 | 0.00 | 76 | 1014.1 |
| 20260902104817 | 76 | 202 | 0.0 | 0.0 | 0.00 | 0.00 | 0.00 | 76 | 1014.2 |
| 20260902104313 | 76 | 202 | 0.0 | 0.0 | 0.00 | 0.00 | 0.00 | 76 | 1014.1 |
| 20260902103745 | 76 | 202 | 0.0 | 0.0 | 0.00 | 0.00 | 0.00 | 76 | 1014.1 |
| 20260902103219 | 77 | 202 | 0.0 | 0.0 | 0.00 | 0.00 | 0.00 | 75 | 1014.1 |
| 20260902102706 | 77 | 201 | 0.0 | 0.0 | 0.00 | 0.00 | 0.00 | 75 | 1014.1 |
| 20260902102210 | 77 | 202 | 0.0 | 0.0 | 0.00 | 0.00 | 0.00 | 74 | 1014.1 |
| 20260902101642 | 77 | 202 | 0.0 | 0.0 | 0.00 | 0.00 | 0.00 | 74 | 1014.2 |
| 20260902101137 | 78 | 201 | 0.0 | 0.0 | 0.00 | 0.00 | 0.00 | 74 | 1014.1 |
| 20260902100635 | 78 | 202 | 0.0 | 0.0 | 0.00 | 0.00 | 0.00 | 73 | 1014.2 |
| 20260902100133 | 78 | 202 | 0.0 | 0.0 | 0.00 | 0.00 | 0.00 | 72 | 1014.1 |
| 20260902095609 | 78 | 201 | 0.0 | 0.0 | 0.00 | 0.00 | 0.00 | 71 | 1014.2 |
| 20260902095106 | 79 | 201 | 0.0 | 0.0 | 0.00 | 0.00 | 0.00 | 71 | 1014.2 |
| 20260902094556 | 79 | 202 | 0.0 | 0.0 | 0.00 | 0.00 | 0.00 | 71 | 1014.1 |
| 20260902094320 | 79 | 201 | 0.0 | 0.0 | 0.00 | 0.00 | 0.00 | 71 | 1014.1 |
| 20260902093530 | 79 | 202 | 0.0 | 0.0 | 0.00 | 0.00 | 0.00 | 70 | 1014.0 |
| 20260902093003 | 79 | 201 | 0.0 | 0.0 | 0.00 | 0.00 | 0.00 | 69 | 1014.0 |
| 20260902092503 | 80 | 201 | 0.0 | 0.0 | 0.00 | 0.00 | 0.00 | 68 | 1014.0 |
| 20260902091941 | 80 | 201 | 0.0 | 0.0 | 0.00 | 0.00 | 0.00 | 67 | 1014.0 |
| 20260902091441 | 80 | 201 | 0.0 | 0.0 | 0.00 | 0.00 | 0.00 | 68 | 1013.9 |
| 20260902090937 | 80 | 201 | 0.0 | 0.0 | 0.00 | 0.00 | 0.00 | 67 | 1013.9 |
| 20260902090440 | 81 | 248 | 0.0 | 0.9 | 0.00 | 0.00 | 0.00 | 67 | 1013.9 |
| 20260902085914 | 81 | 248 | 0.0 | 0.9 | 0.00 | 0.00 | 0.00 | 67 | 1013.9 |
| 20260902085348 | 81 | 224 | 0.0 | 0.9 | 0.00 | 0.00 | 0.00 | 67 | 1013.8 |
| 20260902084821 | 81 | 223 | 0.0 | 0.0 | 0.00 | 0.00 | 0.00 | 67 | 1013.8 |
| 20260902084321 | 81 | 224 | 0.0 | 0.9 | 0.00 | 0.00 | 0.00 | 67 | 1013.8 |
| 20260902083824 | 81 | 224 | 0.0 | 0.9 | 0.00 | 0.00 | 0.00 | 67 | 1013.8 |
| 20260902083302 | 81 | 139 | 0.0 | 0.0 | 0.00 | 0.00 | 0.00 | 66 | 1013.8 |
| 20260902082803 | 82 | 139 | 0.0 | 0.0 | 0.00 | 0.00 | 0.00 | 66 | 1013.8 |
| 20260902082236 | 82 | 154 | 0.0 | 0.9 | 0.00 | 0.00 | 0.00 | 66 | 1013.7 |
| 20260902081735 | 82 | 154 | 0.0 | 0.9 | 0.00 | 0.00 | 0.00 | 66 | 1013.8 |
| 20260902081211 | 82 | 154 | 0.0 | 0.0 | 0.00 | 0.00 | 0.00 | 66 | 1013.8 |
| 20260902080650 | 82 | 188 | 0.0 | 0.9 | 0.00 | 0.00 | 0.00 | 65 | 1013.8 |
| 20260902080150 | 82 | 264 | 0.0 | 0.9 | 0.00 | 0.00 | 0.00 | 65 | 1013.8 |
| 20260902075648 | 82 | 153 | 0.0 | 1.7 | 0.00 | 0.00 | 0.00 | 65 | 1013.8 |